Startpagina
METAR-TAF:

METAR-TAF

Vliegvelden :

Germiston, Zuid-Afrika

breedte: 26-14-33S, lengte: 028-09-04E, hoogte: 1671 m

Actueel weer

Dit bericht is 1 uur en het 9 minuten geleden gemaakt, om 08:00 UTC
Wind 9 kt uit het noordnoordwesten
Temperatuur 21°C
Vochtigheid 64%
Druk 1024 hPa
Zicht: 8000 m

METAR: FAGM 200800Z 33009KT 8000 NSC 21/14 Q1024

Tijdstip: 11:09 (09:09 UTC)


TAF: ontbreekt

Waarnemingen en weersverwachtingen van meer dan 4000 vliegvelden (METAR en TAF).

De beschikbare stations zijn de gele en rode punten op de kaart.

Ga met uw muis naar het station om de naam te zien.

Klik dan om waarnemingen en weersverwachtingen te zien.

kaart wijzigen: klik op de groene knoppen met een zwart kruis om in te zoomen, op de groene knop met een streepje om uit te zoomen of op de groene pijlen voor aangrenzende kaarten.


METAR-TAF: